User: anonymous   Login
Location: Unspecified
(0.0000°N, 0.0000°E)
Time: 10:37:09
(UTC+00:00)
Language:

USA 93 - Orbit

View from above orbital plane
View from above orbital plane
View from above satellite
View from above satellite

Ground track
Ground track

The orbit data is extracted from the following two-line orbital elements,

1 22719U 93046A   18124.75489202 0.00000000  00000-0  00000-0 0    09
2 22719  11.2571  35.1663 0001991 269.9570  90.0322  0.99045561    07
Epoch (UTC): 04 May 2018 18:07:02
Eccentricity: 0.0001991
inclination: 11.2571°
perigee height: 36125 km
apogee height: 36142 km
right ascension of ascending node: 35.1663°
argument of perigee: 269.9570°
revolutions per day: 0.99045561
mean anomaly at epoch: 90.0322°
orbit number at epoch: 0

The dashed part of the orbit path shows where the satellite is in the earth's shadow,  

DLR